Home   Weather   Norman Wells   Past weeks

Flag for Canada Past Weather in Norman Wells, Northwest Territories, Canada — Yesterday and Last 2 Weeks

23 °F

Snow flurries. Ice fog.

Feels Like: 15 °F
Forecast: 17 / 24 °F
Wind: 7 mph from West

Location: Norman Wells

Current Time: Oct 22, 2016 at 3:02:55 AM

Latest Report: Oct 22, 2016 at 2:00 AM

Visibility: 4 mi

Pressure: 29.90 "Hg

Humidity: 100%

Dew Point: 23 °F

Location of Norman WellsLocation

Past Weather in Norman Wells — Graph


Norman Wells Temperature Yesterday

Maximum temperature yesterday: 25 °F (at 12:00 AM)
Minimum temperature yesterday: 21 °F (at 8:00 AM)
Average temperature yesterday: 23 °F

High & Low Weather Summary for the Past Weeks

High37 °F (Oct 7, 3:00 PM)100% (Oct 8, 6:00 AM)30.39 "Hg (Oct 8, 6:00 AM)
Low10 °F (Oct 10, 8:00 AM)47% (Oct 14, 3:00 PM)29.69 "Hg (Oct 20, 4:00 PM)
Average25 °F78%30.01 "Hg
* Reported Oct 7 2:00 AM — Oct 22 2:00 AM, Norman Wells, Weather by CustomWeather, © 2016

Note: Actual official high and low records may vary slightly from our data, if they occured in-between our weather recording intervals... More about our weather records


Norman Wells Weather History for the Previous 24 Hours

Scroll right to see more
Time TempWeatherWind HumidityBarometerVisibility
2:00 AM
Sat, Oct 22
23 °FSnow flurries. Ice fog.7 mph100%29.90 "Hg4 mi
1:00 AM23 °FSnow flurries. Ice fog.2 mph93%29.88 "Hg5 mi
12:00 AM23 °FSnow flurries. Ice fog.No wind93%29.88 "Hg3 mi
11:54 PM
Fri, Oct 21
23 °FSnow flurries. Ice fog.No wind93%29.87 "Hg3 mi
11:00 PM23 °FIce fog.2 mph93%29.86 "Hg6 mi
10:00 PM21 °FLow clouds.2 mph93%29.85 "Hg15 mi
9:00 PM21 °FLow clouds.No wind100%29.83 "Hg10 mi
8:00 PM21 °FLow clouds.No wind93%29.82 "Hg10 mi
7:00 PM21 °FLow clouds.2 mph100%29.80 "Hg10 mi
6:00 PM23 °FLow clouds.5 mph93%29.80 "Hg10 mi
5:00 PM23 °FLow clouds.3 mph93%29.79 "Hg10 mi
4:00 PM23 °FLow clouds.5 mph93%29.78 "Hg10 mi
3:00 PM23 °FLow clouds.No wind93%29.78 "Hg15 mi
2:00 PM23 °FLow clouds.3 mph93%29.77 "Hg10 mi
1:00 PM21 °FLow clouds.5 mph93%29.77 "Hg15 mi
12:00 PM21 °FLow clouds.6 mph93%29.78 "Hg15 mi
11:00 AM21 °FLow clouds.5 mph86%29.76 "Hg15 mi
10:00 AM21 °FLight snow. Low clouds.6 mph86%29.75 "Hg10 mi
9:00 AM21 °FLight snow. Low clouds.7 mph93%29.73 "Hg10 mi
8:00 AM21 °FSnow flurries. Low clouds.6 mph93%29.72 "Hg10 mi
7:00 AM23 °FPassing clouds.5 mph86%29.74 "Hg15 mi
6:00 AM23 °FSnow flurries. Ice fog.5 mph93%29.74 "Hg4 mi
5:00 AM23 °FSnow flurries. Ice fog.5 mph93%29.74 "Hg2 mi
4:00 AM23 °FSnow flurries. Ice fog.8 mph93%29.74 "Hg5 mi
3:00 AM23 °FSnow flurries. Low clouds.12 mph93%29.74 "Hg4 mi
Weather by CustomWeather, © 2016

See weather overviewHow to use our weather pages